Flag for Canada Weather past 2 weeks in Nanaimo, British Columbia, Canada

Now
57 °F

Cool.


Feels Like: 55 °F
Forecast: 55 / 67 °F
Wind: 9 mph from Southeast

Location: Entrance Island

Current Time: May 24, 2015 at 3:25:46 AM

Latest Report: May 24, 2015 at 3:00 AM


Visibility: N/A

Pressure: 30.12 "Hg

Humidity: 85%

Dew point: 52 °F

Location of NanaimoLocation

Historic Weather in Nanaimo — Graph

°F

Nanaimo temperature yesterday

Maximum temperature yesterday: 60 °F (at 5:00 PM)
Minimum temperature yesterday: 56 °F (at 7:00 AM)
Average temperature yesterday: 58 °F

Past Weeks' High & Low Weather Summary

 TemperatureHumidityPressure
High70 °F (May 21, 6:00 PM)90% (May 14, 4:00 AM)30.16 "Hg (May 14, 4:00 AM)
Low52 °F (May 14, 4:00 AM)48% (May 9, 11:00 PM)29.77 "Hg (May 12, 5:00 PM)
Average59 °F76%29.95 "Hg
* Reported May 9 2:00 AM — May 24 2:00 AM, Nanaimo, Weather by CustomWeather, © 2015

Note: Actual official high and low records may vary slightly from our data, if they occured in-between our weather recording intervals... More about our weather records

Advertising

Nanaimo weather history for previous 24 hours

 ConditionsComfort  
Time TempWeatherWind HumidityBarometerVisibility
2:00 AM
Sun, May 24
57 °FCool.10 mph84%30.13 "HgN/A
1:00 AM58 °FCool.10 mph84%30.14 "HgN/A
12:00 AM57 °FCool.8 mph84%30.14 "HgN/A
11:00 PM
Sat, May 23
57 °FCool.9 mph83%30.13 "HgN/A
10:00 PM58 °FCool.15 mph84%30.13 "HgN/A
9:00 PM58 °FCool.17 mph83%30.12 "HgN/A
8:00 PM59 °FCool.16 mph79%30.11 "HgN/A
7:00 PM60 °FCool.14 mph77%30.10 "HgN/A
6:00 PM60 °FCool.15 mph77%30.11 "HgN/A
5:00 PM60 °FCool.14 mph76%30.12 "HgN/A
4:00 PM60 °FCool.12 mph76%30.14 "HgN/A
3:00 PM60 °FCool.12 mph78%30.16 "HgN/A
2:00 PM59 °FCool.14 mph79%30.15 "HgN/A
1:00 PM59 °FCool.13 mph77%30.16 "HgN/A
12:00 PM59 °FCool.13 mph78%30.16 "HgN/A
11:00 AM58 °FCool.10 mph78%30.15 "HgN/A
10:00 AM57 °FCool.9 mph75%30.15 "HgN/A
9:00 AM57 °FCool.8 mph80%30.13 "HgN/A
8:00 AM56 °FCool.8 mph82%30.12 "HgN/A
7:00 AM56 °FCool.6 mph82%30.11 "HgN/A
6:00 AM56 °FCool.10 mph82%30.10 "HgN/A
5:00 AM57 °FCool.7 mph82%30.09 "HgN/A
4:00 AM57 °FCool.8 mph76%30.08 "HgN/A
3:00 AM57 °FCool.10 mph81%30.06 "HgN/A
Weather by CustomWeather, © 2015

See weather overviewHow to use our weather pages